[[{"header":{"parameterUnit":"m.s-1","parameterCategory":1,"la1":30.2991,"la2":30.254,"lo1":-89.0895,"lo2":-89.0444,"dy":0.0017,"dx":0.0017,"nx":28,"ny":28,"refTime":"2024-10-02T03:00:00:Z","depth":0,"parameterNumber":2,"parameterNumberName":"U-component_of_WINDS"},"data":[0,0,0,0,0,0,0,0,0,0,0,0,0,0,0,0,0,0,0,0,0,0,0,0,0,0,0,0,0,0,0,0,0,0,0,0,0,0,0,0,0,0,0,0,0,0,0,0,0,0,0,0,0,0,0,0,0,0,-1.1023,-1.1024,0,-1.1059,-1.1059,-1.106,-1.1,-1.0998,-1.0996,-1.0994,-1.1034,-1.1037,-1.104,0,0,0,0,0,0,0,0,0,0,0,0,0,-1.0907,-1.0909,-1.1023,-1.1024,-1.1024,-1.1059,-1.1059,-1.106,-1.1,-1.0998,-1.0996,-1.0993,-1.1033,-1.1036,-1.104,0,0,0,0,0,0,0,0,0,0,0,0,0,-1.0951,-1.091,-1.1023,-1.0999,-1.0997,-1.1059,-1.1059,-1.106,-1.1001,-1.0998,-1.0995,-1.0992,-1.1032,-1.1036,-1.104,-1.1129,0,0,-1.1054,-1.1056,0,0,0,0,0,0,0,0,-1.0949,-1.0956,-1.1002,-1.1,-1.0998,-1.1022,-1.1032,-1.1083,-1.1002,-1.1,-1.0994,-1.0991,-1.1033,-1.1037,-1.105,-1.1131,-1.1132,-1.1054,-1.1057,-1.1059,-1.106,0,0,0,0,0,0,0,-1.0946,-1.0954,-1.1037,-1.1003,-1.1001,-1.0987,-1.099,-1.1042,-1.1033,-1.0999,-1.0995,-1.1,-1.1031,-1.1046,-1.1051,-1.1133,-1.1054,-1.1058,-1.1061,-1.1063,-1.1288,-1.1291,0,0,0,0,0,0,-1.0945,-1.0952,-1.1036,-1.1038,-1.0966,-1.0991,-1.0995,-1.1017,-1.1032,-1.1031,-1.1003,-1.0997,-1.104,-1.1046,-1.1052,-1.1157,-1.1059,-1.1063,-1.1065,-1.1285,-1.1289,-1.1292,0,0,0,0,0,0,-1.0943,-1.0953,-1.1035,-1.0994,-1.1003,-1.0996,-1.1023,-1.102,-1.1035,-1.1034,-1.1033,-1.102,-1.1038,-1.1046,-1.111,-1.1158,-1.1065,-1.1069,-1.1281,-1.1286,-1.1291,-1.1368,0,0,0,0,0,0,-1.094,-1.0953,-1.0986,-1.0995,-1.1006,-1.1092,-1.1026,-1.1023,-1.1042,-1.1035,-1.105,-1.1049,-1.1036,-1.1104,-1.1114,-1.1162,-1.1072,-1.1277,-1.1283,-1.1289,-1.1361,-1.1375,-1.1387,0,0,0,0,0,-1.0936,-1.1007,-1.0988,-1.0999,-1.1047,-1.1095,-1.1101,-1.1083,-1.1046,-1.108,-1.1079,-1.1049,-1.115,-1.1111,-1.1122,-1.1172,-1.1274,-1.1281,-1.1289,-1.1356,-1.1372,-1.1387,0,0,0,0,0,0,-1.1005,-1.1008,-1.0987,-1.1063,-1.1079,-1.1085,-1.1127,-1.1102,-1.1129,-1.1122,-1.11,-1.1103,-1.1173,-1.1178,-1.1135,-1.1258,-1.1206,-1.1216,-1.1253,-1.1269,-1.1281,-1.128,-1.1076,0,0,0,0,0,-1.1029,-1.1067,-1.1067,-1.1134,-1.1143,-1.1134,-1.1154,-1.1139,-1.1155,-1.1162,-1.1166,-1.1184,-1.122,-1.1244,-1.1277,-1.1361,-1.1364,-1.1401,-1.1414,-1.1424,-1.1434,-1.148,-1.1496,-1.1317,-1.1317,-1.1317,0,0,-1.1079,-1.1085,-1.1111,-1.1149,-1.1159,-1.12,-1.114,-1.1186,-1.1216,-1.1169,-1.1231,-1.1234,-1.1253,-1.1327,-1.136,-1.1334,-1.1484,-1.1434,-1.1442,-1.1446,-1.1489,-1.1506,-1.1521,-1.1322,-1.1321,-1.132,0,0,-1.1192,-1.12,-1.1257,-1.1268,-1.1285,-1.1278,-1.1291,-1.1301,-1.1301,-1.1362,-1.1328,-1.1364,-1.1425,-1.144,-1.1456,-1.1573,-1.1546,-1.1584,-1.1652,-1.1697,-1.1711,-1.1724,-1.1767,-1.1783,-1.1593,-1.1594,-1.1594,0,-1.1253,-1.1313,-1.129,-1.1338,-1.1356,-1.1313,-1.1372,-1.1384,-1.1411,-1.1425,-1.1394,-1.1471,-1.148,-1.1559,-1.1587,-1.16,-1.1616,-1.1584,-1.1711,-1.1723,-1.1734,-1.1776,-1.1792,-1.1598,-1.1598,-1.1597,-1.1597,0,-1.1387,-1.1429,-1.1473,-1.1499,-1.1522,-1.1575,-1.1561,-1.1586,-1.1569,-1.1565,-1.1628,-1.1637,-1.1671,-1.1688,-1.1672,-1.1764,-1.1747,-1.1714,-1.1661,-1.1757,-1.1795,-1.181,-1.1605,-1.1603,-1.1602,-1.1601,0,0,-1.1547,-1.1558,-1.1575,-1.1587,-1.1601,-1.1634,-1.1684,-1.1717,-1.174,-1.1759,-1.1803,-1.1855,-1.1825,-1.1842,-1.1827,-1.1866,-1.196,-1.1828,-1.1828,-1.1854,-1.2064,-1.209,-1.2109,-1.1941,-1.1944,-1.1946,-1.2063,0,-1.1661,-1.1748,-1.1728,-1.1815,-1.1854,-1.1813,-1.1858,-1.1872,-1.187,-1.1903,-1.19,-1.1938,-1.1894,-1.1905,-1.1941,-1.1941,-1.2002,-1.1932,-1.1983,-1.1985,-1.1982,-1.2129,-1.2157,-1.2267,-1.2078,-1.208,-1.2082,0,-1.1805,-1.1829,-1.192,-1.1928,-1.1943,-1.1984,-1.2012,-1.2043,-1.2059,-1.2054,-1.2073,-1.205,-1.2102,-1.2046,-1.2118,-1.207,-1.209,-1.2092,-1.2096,-1.2102,-1.2041,-1.2141,-1.2301,-1.2319,-1.2105,-1.2103,-1.2102,0,-1.1915,-1.197,-1.2031,-1.2042,-1.2052,-1.2082,-1.2088,-1.21,-1.2121,-1.2145,-1.2158,-1.2189,-1.2206,-1.2231,-1.2217,-1.2178,-1.2292,-1.2234,-1.2291,-1.2291,-1.2319,-1.2318,-1.2487,-1.2328,-1.2327,-1.2327,-1.2327,0,-1.2046,-1.2103,-1.2081,-1.2119,-1.2182,-1.2158,-1.2222,-1.2223,-1.2234,-1.2272,-1.2238,-1.2275,-1.2253,-1.2288,-1.2278,-1.2339,-1.2347,-1.2346,-1.2343,-1.235,-1.2351,-1.2365,-1.2358,-1.2331,-1.233,-1.233,-1.2329,0,-1.218,-1.2167,-1.2232,-1.2236,-1.2238,-1.2285,-1.2288,-1.2324,-1.2318,-1.2367,-1.2377,-1.2368,-1.2408,-1.2396,-1.2439,-1.2431,-1.251,-1.2496,-1.2505,-1.2503,-1.256,-1.2556,-1.2746,-1.277,-1.2594,-1.2595,-1.2597,0,-1.2266,-1.2309,-1.2317,-1.2339,-1.2347,-1.2384,-1.2405,-1.2383,-1.2406,-1.2426,-1.246,-1.2496,-1.2524,-1.259,-1.2588,-1.2621,-1.2609,-1.2673,-1.2614,-1.262,-1.2612,-1.2611,-1.2616,-1.2686,-1.2688,-1.2689,-1.2691,0,-1.2419,-1.241,-1.244,-1.2469,-1.2494,-1.2516,-1.2534,-1.2555,-1.2534,-1.2562,-1.2601,-1.2623,-1.2666,-1.2703,-1.2733,-1.274,-1.2713,-1.2709,-1.2724,-1.2734,-1.2738,-1.2738,-1.254,-1.2705,-1.2704,-1.2703,-1.2702,-1.2701,-1.2533,-1.2569,-1.2581,-1.2616,-1.2627,-1.2645,-1.2679,-1.2677,-1.2709,-1.2742,-1.2727,-1.2773,-1.2787,-1.2823,-1.2834,-1.287,-1.2846,-1.2867,-1.2873,-1.288,-1.2888,-1.273,-1.2875,-1.2875,-1.2874,-1.2874,-1.2874,0,-1.2686,-1.2691,-1.2723,-1.275,-1.2778,-1.2747,-1.2766,-1.2792,-1.2832,-1.2847,-1.2875,-1.2921,-1.2956,-1.2956,-1.299,-1.3019,-1.3007,-1.3029,-1.3028,-1.303,-1.2907,-1.2891,-1.3037,-1.3037,-1.3037,-1.3037,-1.3037,-1.3037,-1.2769,-1.283,-1.2822,-1.2888,-1.2893,-1.2937,-1.2951,-1.2967,-1.2979,-1.3031,-1.306,-1.3059,-1.3068,-1.3102,-1.3133,-1.3132,-1.3147,-1.3174,-1.3169,-1.3054,-1.3038,-1.3023,-1.3008,-1.3177,-1.3177,-1.3289,-1.329,-1.3291]},{"header":{"parameterUnit":"m.s-1","parameterCategory":1,"la1":30.2991,"la2":30.254,"lo1":-89.0895,"lo2":-89.0444,"dy":0.0017,"dx":0.0017,"nx":28,"ny":28,"refTime":"2024-10-02T03:00:00:Z","depth":0,"parameterNumber":3,"parameterNumberName":"V-component_of_WINDS"},"data":[0,0,0,0,0,0,0,0,0,0,0,0,0,0,0,0,0,0,0,0,0,0,0,0,0,0,0,0,0,0,0,0,0,0,0,0,0,0,0,0,0,0,0,0,0,0,0,0,0,0,0,0,0,0,0,0,0,0,-4.1518,-4.1518,0,-4.1535,-4.1535,-4.1535,-4.1452,-4.1449,-4.1447,-4.1445,-4.1461,-4.1464,-4.1467,0,0,0,0,0,0,0,0,0,0,0,0,0,-4.1411,-4.1413,-4.1518,-4.1518,-4.1518,-4.1535,-4.1535,-4.1535,-4.1452,-4.1449,-4.1446,-4.1443,-4.146,-4.1464,-4.1467,0,0,0,0,0,0,0,0,0,0,0,0,0,-4.1446,-4.1414,-4.1518,-4.1479,-4.1475,-4.1535,-4.1535,-4.1536,-4.1453,-4.1449,-4.1445,-4.1442,-4.1459,-4.1463,-4.1467,-4.1565,0,0,-4.148,-4.1481,0,0,0,0,0,0,0,0,-4.1444,-4.145,-4.1484,-4.1482,-4.1478,-4.1487,-4.1504,-4.1545,-4.1454,-4.1461,-4.1444,-4.144,-4.1473,-4.1476,-4.1487,-4.1566,-4.1566,-4.148,-4.1483,-4.1484,-4.1485,0,0,0,0,0,0,0,-4.1442,-4.1448,-4.1525,-4.1485,-4.1481,-4.146,-4.1461,-4.1511,-4.1487,-4.146,-4.1454,-4.1458,-4.147,-4.1483,-4.1487,-4.1567,-4.148,-4.1484,-4.1486,-4.1488,-4.1725,-4.1729,0,0,0,0,0,0,-4.1445,-4.1447,-4.1524,-4.1525,-4.1452,-4.1465,-4.1466,-4.1488,-4.1486,-4.1483,-4.1461,-4.1454,-4.1478,-4.1482,-4.1487,-4.16,-4.1484,-4.1488,-4.149,-4.1721,-4.1726,-4.173,0,0,0,0,0,0,-4.1443,-4.1452,-4.1523,-4.1484,-4.1492,-4.147,-4.1496,-4.149,-4.1503,-4.1487,-4.1482,-4.1478,-4.1475,-4.1481,-4.1546,-4.1599,-4.149,-4.1494,-4.1717,-4.1723,-4.1728,-4.1828,0,0,0,0,0,0,-4.144,-4.1452,-4.149,-4.1486,-4.1494,-4.1583,-4.15,-4.1493,-4.151,-4.1501,-4.1502,-4.1498,-4.1473,-4.154,-4.155,-4.1603,-4.1497,-4.1712,-4.1719,-4.1726,-4.182,-4.1837,-4.1851,0,0,0,0,0,-4.1436,-4.1517,-4.1492,-4.1502,-4.1541,-4.1586,-4.1591,-4.156,-4.1515,-4.1552,-4.1541,-4.1498,-4.1592,-4.1548,-4.1558,-4.1613,-4.1708,-4.1717,-4.1726,-4.1813,-4.1833,-4.185,0,0,0,0,0,0,-4.1528,-4.1516,-4.1488,-4.157,-4.158,-4.1572,-4.1618,-4.1583,-4.1606,-4.1596,-4.1557,-4.1558,-4.1629,-4.1627,-4.1578,-4.1706,-4.1642,-4.1653,-4.1705,-4.1724,-4.174,-4.1738,-4.15,0,0,0,0,0,-4.1558,-4.1596,-4.1583,-4.1657,-4.1663,-4.164,-4.1659,-4.1634,-4.1643,-4.1646,-4.164,-4.165,-4.1681,-4.1703,-4.1731,-4.1819,-4.1817,-4.1862,-4.1877,-4.189,-4.19,-4.1946,-4.1965,-4.1759,-4.1759,-4.1758,0,0,-4.1619,-4.1618,-4.1645,-4.1676,-4.168,-4.172,-4.1644,-4.169,-4.1719,-4.1653,-4.1714,-4.171,-4.1717,-4.1794,-4.1828,-4.1795,-4.1957,-4.1901,-4.1912,-4.1915,-4.1957,-4.1976,-4.1994,-4.1765,-4.1763,-4.1763,0,0,-4.1752,-4.1756,-4.1817,-4.1823,-4.183,-4.1814,-4.1829,-4.1826,-4.1821,-4.1881,-4.1832,-4.1866,-4.1921,-4.1928,-4.1939,-4.2073,-4.2034,-4.2084,-4.2164,-4.2209,-4.2225,-4.224,-4.2287,-4.2304,-4.2094,-4.2094,-4.2094,0,-4.1828,-4.1887,-4.1852,-4.1901,-4.1916,-4.1858,-4.1919,-4.1926,-4.1943,-4.1954,-4.1917,-4.1984,-4.1985,-4.2062,-4.2095,-4.2106,-4.2121,-4.2083,-4.2226,-4.224,-4.2253,-4.2297,-4.2315,-4.21,-4.2099,-4.2098,-4.2098,0,-4.1979,-4.202,-4.2069,-4.2086,-4.2106,-4.2161,-4.2134,-4.2158,-4.2131,-4.2119,-4.218,-4.2179,-4.2206,-4.2222,-4.2197,-4.2295,-4.2275,-4.2233,-4.2167,-4.2279,-4.232,-4.2336,-4.2108,-4.2106,-4.2104,-4.2103,0,0,-4.2171,-4.2168,-4.2186,-4.2192,-4.2196,-4.2227,-4.2278,-4.2304,-4.2325,-4.2338,-4.238,-4.2427,-4.2388,-4.2401,-4.2375,-4.2415,-4.252,-4.2367,-4.2367,-4.2395,-4.2627,-4.2658,-4.2679,-4.2494,-4.2497,-4.25,-4.2626,0,-4.2301,-4.2389,-4.2358,-4.2448,-4.2485,-4.2429,-4.2474,-4.2481,-4.247,-4.2499,-4.2487,-4.2521,-4.2467,-4.2474,-4.2511,-4.2499,-4.2566,-4.249,-4.2532,-4.2533,-4.2531,-4.27,-4.2734,-4.2853,-4.2642,-4.2645,-4.2647,0,-4.2464,-4.2483,-4.2576,-4.2572,-4.2586,-4.2627,-4.2647,-4.2676,-4.2682,-4.2671,-4.2685,-4.2651,-4.27,-4.2635,-4.2702,-4.2651,-4.2666,-4.2663,-4.2667,-4.2669,-4.2597,-4.2706,-4.2891,-4.2909,-4.2672,-4.267,-4.2668,0,-4.2593,-4.2642,-4.2704,-4.2711,-4.2708,-4.2738,-4.2738,-4.2741,-4.2757,-4.2775,-4.2785,-4.2809,-4.2822,-4.284,-4.2813,-4.2768,-4.2883,-4.2816,-4.2875,-4.2876,-4.2902,-4.2901,-4.3091,-4.2913,-4.2913,-4.2912,-4.2912,0,-4.2741,-4.28,-4.2762,-4.28,-4.2864,-4.2828,-4.2892,-4.2886,-4.2888,-4.2923,-4.2877,-4.2911,-4.2873,-4.2903,-4.2882,-4.294,-4.2946,-4.2939,-4.2932,-4.2943,-4.2943,-4.2952,-4.2942,-4.2917,-4.2916,-4.2915,-4.2914,0,-4.2896,-4.2874,-4.2937,-4.2929,-4.2928,-4.2975,-4.2968,-4.3002,-4.2987,-4.3032,-4.3041,-4.3018,-4.3051,-4.3026,-4.3059,-4.3044,-4.3121,-4.3103,-4.3119,-4.3114,-4.3174,-4.3168,-4.3375,-4.34,-4.3207,-4.3209,-4.3211,0,-4.2992,-4.3036,-4.3032,-4.3052,-4.3055,-4.3088,-4.3105,-4.3071,-4.309,-4.3099,-4.3132,-4.3161,-4.3182,-4.3238,-4.3224,-4.3248,-4.323,-4.3301,-4.3234,-4.3242,-4.323,-4.3228,-4.3232,-4.3315,-4.3317,-4.3319,-4.332,0,-4.3164,-4.315,-4.3176,-4.3198,-4.3219,-4.3234,-4.3246,-4.3265,-4.323,-4.3254,-4.3287,-4.3304,-4.3336,-4.3365,-4.3385,-4.3384,-4.3347,-4.3342,-4.3356,-4.3367,-4.3374,-4.337,-4.3155,-4.3337,-4.3335,-4.3334,-4.3333,-4.3333,-4.3291,-4.3327,-4.333,-4.336,-4.3365,-4.3377,-4.3408,-4.3397,-4.3424,-4.3448,-4.3426,-4.3465,-4.3469,-4.3491,-4.3495,-4.3525,-4.3495,-4.3517,-4.3522,-4.3528,-4.3537,-4.337,-4.3528,-4.3528,-4.3527,-4.3527,-4.3526,0,-4.346,-4.3458,-4.3486,-4.3504,-4.3527,-4.349,-4.35,-4.3522,-4.3557,-4.3564,-4.3585,-4.3623,-4.365,-4.3638,-4.3662,-4.3689,-4.3672,-4.3696,-4.3693,-4.3694,-4.3562,-4.3546,-4.3709,-4.3709,-4.3709,-4.3709,-4.3709,-4.3709,-4.355,-4.3608,-4.3595,-4.3654,-4.3652,-4.369,-4.37,-4.371,-4.3714,-4.3758,-4.3781,-4.3772,-4.3771,-4.3795,-4.3818,-4.3814,-4.3824,-4.3855,-4.3844,-4.3721,-4.3703,-4.3686,-4.3671,-4.3857,-4.3858,-4.3973,-4.3975,-4.3975]}]]